| time (UTC) | temp F | wind direction | speed knots | gust knots | rain 1hr in | rain 24hr in | rain mn in | humidity % | barometer mb |
| 20260504021116 | 69 | 206 | 2.6 | 3.5 | 0.00 | 0.00 | 0.00 | 59 | 1016.6 |
| 20260504020137 | 69 | 207 | 2.6 | 3.5 | 0.00 | 0.00 | 0.00 | 57 | 1016.5 |
| 20260504015621 | 70 | 207 | 2.6 | 3.5 | 0.00 | 0.00 | 0.00 | 57 | 1016.6 |
| 20260504015132 | 70 | 208 | 2.6 | 3.5 | 0.00 | 0.00 | 0.00 | 57 | 1016.6 |
| 20260504014534 | 70 | 208 | 2.6 | 3.5 | 0.00 | 0.00 | 0.00 | 57 | 1016.5 |
| 20260504014039 | 70 | 208 | 2.6 | 3.5 | 0.00 | 0.00 | 0.00 | 56 | 1016.5 |
| 20260504013040 | 71 | 208 | 1.7 | 2.6 | 0.00 | 0.00 | 0.00 | 56 | 1016.4 |
| 20260504012554 | 71 | 208 | 1.7 | 3.5 | 0.00 | 0.00 | 0.00 | 55 | 1016.3 |
| 20260504011028 | 72 | 209 | 2.6 | 4.3 | 0.00 | 0.00 | 0.00 | 53 | 1016.3 |
| 20260504010641 | 72 | 209 | 2.6 | 4.3 | 0.00 | 0.00 | 0.00 | 54 | 1016.3 |
| 20260504010038 | 72 | 211 | 2.6 | 3.5 | 0.00 | 0.00 | 0.00 | 53 | 1016.3 |
| 20260504005548 | 72 | 211 | 2.6 | 4.3 | 0.00 | 0.00 | 0.00 | 53 | 1016.3 |
| 20260504004608 | 73 | 212 | 3.5 | 4.3 | 0.00 | 0.00 | 0.00 | 52 | 1016.4 |
| 20260504004059 | 73 | 217 | 2.6 | 5.2 | 0.00 | 0.00 | 0.00 | 52 | 1016.4 |
| 20260504003102 | 73 | 178 | 3.5 | 5.2 | 0.00 | 0.00 | 0.00 | 50 | 1016.6 |
| 20260504002614 | 74 | 172 | 4.3 | 5.2 | 0.00 | 0.00 | 0.00 | 49 | 1016.6 |
| 20260504001615 | 74 | 155 | 4.3 | 7.0 | 0.00 | 0.00 | 0.00 | 49 | 1016.7 |
| 20260504001119 | 74 | 191 | 4.3 | 6.1 | 0.00 | 0.00 | 0.00 | 49 | 1016.9 |
| 20260504000529 | 75 | 186 | 2.6 | 6.1 | 0.00 | 0.00 | 0.00 | 49 | 1016.9 |
| 20260504000120 | 75 | 194 | 3.5 | 7.0 | 0.00 | 0.00 | 0.00 | 48 | 1016.8 |
| 20260503235625 | 76 | 194 | 4.3 | 8.7 | 0.00 | 0.00 | 0.00 | 45 | 1016.8 |
| 20260503235114 | 76 | 138 | 5.2 | 8.7 | 0.00 | 0.00 | 0.00 | 46 | 1016.8 |
| 20260503234532 | 77 | 165 | 7.0 | 9.6 | 0.00 | 0.00 | 0.00 | 45 | 1016.8 |
| 20260503234044 | 77 | 184 | 5.2 | 11.3 | 0.00 | 0.00 | 0.00 | 46 | 1016.7 |
| 20260503233110 | 77 | 177 | 6.1 | 10.4 | 0.00 | 0.00 | 0.00 | 47 | 1016.8 |
| 20260503232601 | 77 | 167 | 7.0 | 9.6 | 0.00 | 0.00 | 0.00 | 47 | 1016.9 |
| 20260503231619 | 77 | 187 | 7.0 | 10.4 | 0.00 | 0.00 | 0.00 | 45 | 1017.0 |
| 20260503231031 | 77 | 188 | 5.2 | 8.7 | 0.00 | 0.00 | 0.00 | 46 | 1016.9 |
| 20260503230051 | 77 | 181 | 7.8 | 11.3 | 0.00 | 0.00 | 0.00 | 44 | 1017.0 |
| 20260503225534 | 78 | 175 | 7.0 | 10.4 | 0.00 | 0.00 | 0.00 | 46 | 1017.0 |
| 20260503225144 | 78 | 198 | 6.1 | 12.2 | 0.00 | 0.00 | 0.00 | 46 | 1017.0 |
| 20260503224546 | 77 | 141 | 8.7 | 15.6 | 0.00 | 0.00 | 0.00 | 44 | 1017.1 |
| 20260503224058 | 78 | 159 | 7.8 | 13.9 | 0.00 | 0.00 | 0.00 | 45 | 1017.1 |
| 20260503223558 | 78 | 172 | 9.6 | 13.0 | 0.00 | 0.00 | 0.00 | 45 | 1017.2 |
| 20260503223030 | 78 | 150 | 7.8 | 13.0 | 0.00 | 0.00 | 0.00 | 48 | 1017.1 |
| 20260503222540 | 78 | 185 | 5.2 | 13.0 | 0.00 | 0.00 | 0.00 | 48 | 1017.3 |
| 20260503221603 | 78 | 161 | 9.6 | 13.0 | 0.00 | 0.00 | 0.00 | 45 | 1017.4 |
| 20260503221113 | 78 | 184 | 6.1 | 9.6 | 0.00 | 0.00 | 0.00 | 43 | 1017.4 |
| 20260503220618 | 78 | 176 | 7.0 | 9.6 | 0.00 | 0.00 | 0.00 | 43 | 1017.4 |
| 20260503220048 | 78 | 157 | 7.0 | 9.6 | 0.00 | 0.00 | 0.00 | 44 | 1017.6 |
| 20260503215553 | 78 | 192 | 6.1 | 12.2 | 0.00 | 0.00 | 0.00 | 45 | 1017.6 |
| 20260503214622 | 78 | 171 | 6.1 | 11.3 | 0.00 | 0.00 | 0.00 | 44 | 1017.9 |
| 20260503214103 | 78 | 220 | 4.3 | 10.4 | 0.00 | 0.00 | 0.00 | 44 | 1018.0 |
| 20260503213612 | 78 | 184 | 6.1 | 10.4 | 0.00 | 0.00 | 0.00 | 47 | 1018.0 |
| 20260503213031 | 78 | 107 | 6.1 | 14.8 | 0.00 | 0.00 | 0.00 | 46 | 1017.9 |
| 20260503212541 | 78 | 126 | 7.0 | 14.8 | 0.00 | 0.00 | 0.00 | 45 | 1018.0 |
| 20260503211540 | 78 | 148 | 5.2 | 13.0 | 0.00 | 0.00 | 0.00 | 47 | 1017.9 |
| 20260503211050 | 78 | 140 | 10.4 | 14.8 | 0.00 | 0.00 | 0.00 | 45 | 1018.2 |
| 20260503210115 | 77 | 139 | 5.2 | 12.2 | 0.00 | 0.00 | 0.00 | 45 | 1018.5 |
| 20260503205603 | 78 | 153 | 8.7 | 12.2 | 0.00 | 0.00 | 0.00 | 42 | 1018.6 |
| 20260503205103 | 78 | 130 | 4.3 | 9.6 | 0.00 | 0.00 | 0.00 | 44 | 1018.6 |
| 20260503204534 | 78 | 150 | 4.3 | 9.6 | 0.00 | 0.00 | 0.00 | 42 | 1018.7 |
| 20260503204039 | 79 | 122 | 6.1 | 10.4 | 0.00 | 0.00 | 0.00 | 45 | 1018.7 |
| 20260503203044 | 79 | 171 | 6.1 | 10.4 | 0.00 | 0.00 | 0.00 | 45 | 1018.9 |
| 20260503202549 | 78 | 89 | 3.5 | 7.8 | 0.00 | 0.00 | 0.00 | 45 | 1019.0 |
| 20260503201547 | 78 | 142 | 3.5 | 9.6 | 0.00 | 0.00 | 0.00 | 45 | 1019.2 |
| 20260503201100 | 78 | 136 | 4.3 | 12.2 | 0.00 | 0.00 | 0.00 | 43 | 1019.3 |
| 20260503200123 | 78 | 126 | 8.7 | 11.3 | 0.00 | 0.00 | 0.00 | 44 | 1019.3 |
| 20260503195533 | 78 | 150 | 3.5 | 9.6 | 0.00 | 0.00 | 0.00 | 45 | 1019.2 |
| 20260503195125 | 78 | 115 | 5.2 | 9.6 | 0.00 | 0.00 | 0.00 | 43 | 1019.4 |
| 20260503194544 | 78 | 146 | 4.3 | 8.7 | 0.00 | 0.00 | 0.00 | 45 | 1019.5 |
| 20260503194029 | 78 | 143 | 4.3 | 8.7 | 0.00 | 0.00 | 0.00 | 47 | 1019.7 |
| 20260503193641 | 77 | 217 | 7.0 | 10.4 | 0.00 | 0.00 | 0.00 | 42 | 1019.8 |
| 20260503193044 | 78 | 184 | 7.0 | 10.4 | 0.00 | 0.00 | 0.00 | 42 | 1019.9 |
| 20260503192546 | 78 | 92 | 4.3 | 8.7 | 0.00 | 0.00 | 0.00 | 46 | 1020.0 |
| 20260503191600 | 77 | 137 | 6.1 | 11.3 | 0.00 | 0.00 | 0.00 | 43 | 1020.1 |
| 20260503191103 | 77 | 150 | 6.1 | 13.9 | 0.00 | 0.00 | 0.00 | 44 | 1020.1 |
| 20260503190124 | 77 | 126 | 5.2 | 9.6 | 0.00 | 0.00 | 0.00 | 46 | 1020.2 |
| 20260503185611 | 77 | 165 | 3.5 | 7.8 | 0.00 | 0.00 | 0.00 | 47 | 1020.3 |
| 20260503185124 | 77 | 157 | 4.3 | 12.2 | 0.00 | 0.00 | 0.00 | 46 | 1020.3 |
| 20260503184544 | 77 | 134 | 7.8 | 12.2 | 0.00 | 0.00 | 0.00 | 44 | 1020.5 |
| 20260503184053 | 77 | 198 | 2.6 | 7.8 | 0.00 | 0.00 | 0.00 | 46 | 1020.5 |
| 20260503183054 | 77 | 140 | 5.2 | 9.6 | 0.00 | 0.00 | 0.00 | 45 | 1020.7 |
| 20260503182544 | 77 | 137 | 4.3 | 9.6 | 0.00 | 0.00 | 0.00 | 49 | 1020.7 |
| 20260503181609 | 77 | 134 | 3.5 | 9.6 | 0.00 | 0.00 | 0.00 | 48 | 1020.9 |
| 20260503181114 | 76 | 144 | 6.1 | 12.2 | 0.00 | 0.00 | 0.00 | 47 | 1020.9 |
| 20260503180624 | 76 | 168 | 6.1 | 12.2 | 0.00 | 0.00 | 0.00 | 49 | 1020.9 |
| 20260503180050 | 76 | 126 | 4.3 | 9.6 | 0.00 | 0.00 | 0.00 | 49 | 1021.1 |
| 20260503175553 | 76 | 160 | 3.5 | 12.2 | 0.00 | 0.00 | 0.00 | 48 | 1021.1 |
| 20260503174613 | 76 | 138 | 3.5 | 7.8 | 0.00 | 0.00 | 0.00 | 50 | 1021.4 |
| 20260503174121 | 76 | 86 | 3.5 | 7.8 | 0.00 | 0.00 | 0.00 | 52 | 1021.5 |
| 20260503173559 | 76 | 115 | 3.5 | 7.8 | 0.00 | 0.00 | 0.00 | 53 | 1021.6 |
| 20260503173030 | 75 | 198 | 3.5 | 6.1 | 0.00 | 0.00 | 0.00 | 51 | 1021.6 |
| 20260503172616 | 75 | 205 | 2.6 | 8.7 | 0.00 | 0.00 | 0.00 | 52 | 1021.7 |
| 20260503172124 | 75 | 216 | 6.1 | 8.7 | 0.00 | 0.00 | 0.00 | 51 | 1021.8 |
| 20260503171530 | 75 | 149 | 1.7 | 7.8 | 0.00 | 0.00 | 0.00 | 51 | 1021.9 |
| 20260503171040 | 75 | 146 | 4.3 | 7.8 | 0.00 | 0.00 | 0.00 | 52 | 1022.0 |
| 20260503150108 | 70 | 195 | 4.3 | 6.1 | 0.00 | 0.00 | 0.00 | 65 | 1022.2 |
| 20260503131045 | 63 | 224 | 3.5 | 4.3 | 0.00 | 0.00 | 0.00 | 74 | 1021.4 |
| 20260503130552 | 62 | 250 | 1.7 | 3.5 | 0.00 | 0.00 | 0.00 | 76 | 1021.4 |
| 20260503110126 | 59 | 212 | 1.7 | 3.5 | 0.00 | 0.00 | 0.00 | 75 | 1020.2 |
| 20260503081553 | 62 | 261 | 0.0 | 0.0 | 0.00 | 0.00 | 0.00 | 70 | 1019.9 |
| 20260503081036 | 62 | 261 | 0.0 | 0.0 | 0.00 | 0.00 | 0.00 | 69 | 1019.9 |
| 20260503072614 | 63 | 261 | 1.7 | 2.6 | 0.00 | 0.00 | 0.00 | 67 | 1020.3 |
| 20260503072123 | 63 | 261 | 1.7 | 2.6 | 0.00 | 0.00 | 0.00 | 67 | 1020.4 |
| 20260503071542 | 64 | 261 | 0.9 | 2.6 | 0.00 | 0.00 | 0.00 | 66 | 1020.4 |
| 20260503071053 | 64 | 261 | 1.7 | 2.6 | 0.00 | 0.00 | 0.00 | 66 | 1020.4 |
| 20260503070616 | 64 | 261 | 1.7 | 2.6 | 0.00 | 0.00 | 0.00 | 65 | 1020.4 |
| 20260503055044 | 65 | 261 | 0.0 | 0.0 | 0.00 | 0.00 | 0.00 | 63 | 1020.4 |
| 20260503054544 | 65 | 261 | 0.0 | 0.0 | 0.00 | 0.00 | 0.00 | 62 | 1020.4 |
| 20260503054054 | 65 | 261 | 0.0 | 0.0 | 0.00 | 0.00 | 0.00 | 63 | 1020.4 |
| 20260503053540 | 65 | 261 | 0.0 | 0.0 | 0.00 | 0.00 | 0.00 | 63 | 1020.4 |
| 20260503053033 | 65 | 261 | 0.0 | 0.0 | 0.00 | 0.00 | 0.00 | 63 | 1020.4 |
| 20260503052542 | 65 | 261 | 0.0 | 0.0 | 0.00 | 0.00 | 0.00 | 62 | 1020.5 |
| 20260503052028 | 65 | 261 | 0.0 | 0.0 | 0.00 | 0.00 | 0.00 | 62 | 1020.5 |
| 20260503051553 | 65 | 261 | 0.0 | 0.0 | 0.00 | 0.00 | 0.00 | 62 | 1020.5 |
| 20260503051042 | 65 | 261 | 0.0 | 0.0 | 0.00 | 0.00 | 0.00 | 63 | 1020.4 |
| 20260503050543 | 65 | 261 | 0.0 | 0.0 | 0.00 | 0.00 | 0.00 | 63 | 1020.4 |
| 20260503050122 | 65 | 261 | 0.0 | 0.0 | 0.00 | 0.00 | 0.00 | 63 | 1020.3 |
| 20260503045529 | 65 | 261 | 0.0 | 0.0 | 0.00 | 0.00 | 0.00 | 63 | 1020.2 |
| 20260503044529 | 65 | 261 | 0.0 | 0.0 | 0.00 | 0.00 | 0.00 | 63 | 1020.3 |
| 20260503044142 | 65 | 261 | 0.0 | 0.0 | 0.00 | 0.00 | 0.00 | 62 | 1020.3 |
| 20260503043623 | 66 | 261 | 0.0 | 0.0 | 0.00 | 0.00 | 0.00 | 62 | 1020.4 |
| 20260503043033 | 66 | 261 | 0.0 | 0.0 | 0.00 | 0.00 | 0.00 | 62 | 1020.4 |
| 20260503042546 | 66 | 261 | 0.0 | 0.0 | 0.00 | 0.00 | 0.00 | 62 | 1020.3 |
| 20260503041606 | 66 | 261 | 0.0 | 0.0 | 0.00 | 0.00 | 0.00 | 62 | 1020.3 |
| 20260503041118 | 66 | 261 | 0.0 | 0.0 | 0.00 | 0.00 | 0.00 | 62 | 1020.3 |
| 20260503040622 | 66 | 261 | 0.0 | 0.0 | 0.00 | 0.00 | 0.00 | 62 | 1020.3 |
| 20260503040047 | 66 | 261 | 0.0 | 0.0 | 0.00 | 0.00 | 0.00 | 62 | 1020.2 |
| 20260503035550 | 65 | 261 | 0.0 | 0.0 | 0.00 | 0.00 | 0.00 | 63 | 1020.1 |
| 20260503034611 | 65 | 261 | 0.0 | 0.0 | 0.00 | 0.00 | 0.00 | 63 | 1020.1 |
| 20260503034104 | 65 | 261 | 0.0 | 0.0 | 0.00 | 0.00 | 0.00 | 63 | 1020.1 |
| 20260503033125 | 66 | 261 | 0.0 | 0.0 | 0.00 | 0.00 | 0.00 | 64 | 1020.1 |
| 20260503032534 | 66 | 261 | 0.0 | 0.0 | 0.00 | 0.00 | 0.00 | 63 | 1020.1 |
| 20260503031552 | 67 | 261 | 0.0 | 0.0 | 0.00 | 0.00 | 0.00 | 61 | 1019.7 |
| 20260503031102 | 68 | 261 | 0.0 | 0.0 | 0.00 | 0.00 | 0.00 | 60 | 1019.7 |
| 20260503025604 | 68 | 261 | 0.0 | 0.9 | 0.00 | 0.00 | 0.00 | 59 | 1019.4 |
| 20260503024619 | 68 | 261 | 0.9 | 1.7 | 0.00 | 0.00 | 0.00 | 59 | 1019.4 |
| 20260503024100 | 68 | 261 | 0.9 | 0.9 | 0.00 | 0.00 | 0.00 | 60 | 1019.3 |
| 20260503023615 | 68 | 261 | 0.0 | 0.0 | 0.00 | 0.00 | 0.00 | 60 | 1019.3 |
| 20260503023028 | 68 | 261 | 0.0 | 0.0 | 0.00 | 0.00 | 0.00 | 60 | 1019.3 |
| 20260503022538 | 68 | 261 | 0.0 | 0.0 | 0.00 | 0.00 | 0.00 | 59 | 1019.4 |
| 20260503021559 | 69 | 261 | 0.0 | 1.7 | 0.00 | 0.00 | 0.00 | 60 | 1019.3 |